Tiempo cada hora Cordoba

Hoy, 17 Enero, Domingo

Tiempo Temperatura Precipitaciones Viento Presión Humedad
00:00 +8°C° 0 mm 1 mps 763 mmHg 57%
01:00 +7°C° 0 mm 1 mps 762 mmHg 56%
02:00 +7°C° 0 mm 1 mps 762 mmHg 55%
03:00 +7°C° 0 mm 1 mps 762 mmHg 53%
04:00 +7°C° 0 mm 1 mps 762 mmHg 52%
05:00 +6°C° 0 mm 1 mps 762 mmHg 51%
06:00 +6°C° 0 mm 1 mps 762 mmHg 51%
07:00 +7°C° 0 mm 1 mps 762 mmHg 51%
08:00 +7°C° 0 mm 2 mps 762 mmHg 51%
09:00 +8°C° 0 mm 2 mps 762 mmHg 51%
10:00 +10°C° 0 mm 2 mps 762 mmHg 47%
11:00 +13°C° 0 mm 2 mps 762 mmHg 42%
12:00 +16°C° 0 mm 2 mps 762 mmHg 38%
13:00 +16°C° 0 mm 2 mps 761 mmHg 39%
14:00 +18°C° 0 mm 1 mps 761 mmHg 40%
15:00 +18°C° 0 mm 1 mps 760 mmHg 41%
16:00 +15°C° 0 mm 1 mps 760 mmHg 46%
17:00 +13°C° 0 mm 1 mps 760 mmHg 51%
18:00 +11°C° 0 mm 1 mps 760 mmHg 57%
19:00 +11°C° 0 mm 1 mps 760 mmHg 58%
20:00 +10°C° 0 mm 1 mps 760 mmHg 59%
21:00 +10°C° 0 mm 1 mps 760 mmHg 60%
22:00 +9°C° 0 mm 1 mps 760 mmHg 61%
23:00 +9°C° 0 mm 1 mps 761 mmHg 61%

Mañana, 18 Enero, Lunes

Tiempo Temperatura Precipitaciones Viento Presión Humedad
00:00 +9°C° 0 mm 1 mps 761 mmHg 61%
01:00 +9°C° 0 mm 1 mps 760 mmHg 60%
02:00 +8°C° 0 mm 1 mps 760 mmHg 59%
03:00 +8°C° 0 mm 1 mps 760 mmHg 58%
04:00 +8°C° 0 mm 1 mps 760 mmHg 57%
05:00 +7°C° 0 mm 1 mps 760 mmHg 56%
06:00 +7°C° 0 mm 1 mps 760 mmHg 55%
07:00 +8°C° 0 mm 1 mps 760 mmHg 54%
08:00 +9°C° 0 mm 1 mps 760 mmHg 53%
09:00 +9°C° 0 mm 1 mps 760 mmHg 53%
10:00 +12°C° 0 mm 1 mps 760 mmHg 48%
11:00 +14°C° 0 mm 1 mps 760 mmHg 44%
12:00 +16°C° 0 mm 1 mps 760 mmHg 39%
13:00 +16°C° 0 mm 1 mps 760 mmHg 40%
14:00 +16°C° 0 mm 1 mps 759 mmHg 41%
15:00 +18°C° 0 mm 1 mps 758 mmHg 42%
16:00 +15°C° 0 mm 1 mps 759 mmHg 48%
17:00 +13°C° 0 mm 1 mps 759 mmHg 55%
18:00 +10°C° 0 mm 0 mps 759 mmHg 61%
19:00 +9°C° 0 mm 0 mps 759 mmHg 62%
20:00 +9°C° 0 mm 0 mps 760 mmHg 62%
21:00 +9°C° 0 mm 0 mps 760 mmHg 63%
22:00 +8°C° 0 mm 0 mps 760 mmHg 64%
23:00 +8°C° 0 mm 0 mps 760 mmHg 66%

Pasado mañana, 19 Enero, Martes

Tiempo Temperatura Precipitaciones Viento Presión Humedad
00:00 +8°C° 0 mm 0 mps 760 mmHg 67%
01:00 +7°C° 0 mm 0 mps 760 mmHg 69%
02:00 +7°C° 0 mm 0 mps 760 mmHg 71%
03:00 +7°C° 0 mm 0 mps 759 mmHg 73%
04:00 +7°C° 0 mm 0 mps 759 mmHg 74%
05:00 +7°C° 0 mm 1 mps 759 mmHg 75%
06:00 +7°C° 0 mm 1 mps 759 mmHg 76%
07:00 +8°C° 0 mm 1 mps 759 mmHg 73%
08:00 +9°C° 0 mm 1 mps 759 mmHg 70%
09:00 +9°C° 0 mm 0 mps 759 mmHg 67%
10:00 +11°C° 0 mm 1 mps 759 mmHg 62%
11:00 +13°C° 0 mm 1 mps 758 mmHg 57%
12:00 +15°C° 0 mm 1 mps 758 mmHg 52%
13:00 +15°C° 0 mm 1 mps 758 mmHg 52%
14:00 +15°C° 0 mm 2 mps 757 mmHg 52%
15:00 +15°C° 0 mm 2 mps 756 mmHg 52%
16:00 +13°C° 0 mm 1 mps 756 mmHg 61%
17:00 +12°C° 0 mm 1 mps 756 mmHg 69%
18:00 +10°C° 0 mm 1 mps 756 mmHg 78%
19:00 +10°C° 0 mm 1 mps 756 mmHg 80%
20:00 +10°C° 0 mm 1 mps 756 mmHg 81%
21:00 +10°C° 0 mm 1 mps 756 mmHg 83%
22:00 +9°C° 0 mm 1 mps 756 mmHg 84%
23:00 +9°C° 0 mm 1 mps 755 mmHg 85%

20 Enero, Miércoles

Tiempo Temperatura Precipitaciones Viento Presión Humedad
00:00 +9°C° 0 mm 1 mps 755 mmHg 86%
01:00 +9°C° 0 mm 1 mps 754 mmHg 84%
02:00 +9°C° 0 mm 1 mps 754 mmHg 83%
03:00 +10°C° 0 mm 1 mps 753 mmHg 82%
04:00 +9°C° 0 mm 2 mps 753 mmHg 80%
05:00 +9°C° 0 mm 2 mps 752 mmHg 79%
06:00 +9°C° 0 mm 3 mps 752 mmHg 77%
07:00 +9°C° 0.1 mm 3 mps 751 mmHg 76%
08:00 +10°C° 0.1 mm 3 mps 751 mmHg 75%
09:00 +10°C° 0.1 mm 3 mps 750 mmHg 75%
10:00 +11°C° 1.9 mm 4 mps 750 mmHg 80%
11:00 +11°C° 1.9 mm 4 mps 750 mmHg 85%
12:00 +10°C° 1.9 mm 5 mps 750 mmHg 90%
13:00 +12°C° 0.8 mm 5 mps 749 mmHg 89%
14:00 +13°C° 0.8 mm 5 mps 748 mmHg 88%
15:00 +13°C° 0.8 mm 5 mps 748 mmHg 87%
16:00 +13°C° 0.5 mm 5 mps 748 mmHg 87%
17:00 +12°C° 0.5 mm 5 mps 748 mmHg 88%
18:00 +12°C° 0.5 mm 5 mps 749 mmHg 88%
19:00 +12°C° 0.3 mm 5 mps 749 mmHg 89%
20:00 +11°C° 0.3 mm 4 mps 750 mmHg 91%
21:00 +11°C° 0.3 mm 4 mps 751 mmHg 92%
22:00 +11°C° 0.2 mm 4 mps 751 mmHg 92%
23:00 +11°C° 0.2 mm 4 mps 751 mmHg 92%

21 Enero, Jueves

Tiempo Temperatura Precipitaciones Viento Presión Humedad
00:00 +10°C° 0.2 mm 5 mps 751 mmHg 92%
01:00 +11°C° 0.1 mm 4 mps 752 mmHg 93%
02:00 +11°C° 0.1 mm 4 mps 752 mmHg 93%
03:00 +11°C° 0.1 mm 4 mps 752 mmHg 94%
04:00 +11°C° 0.1 mm 4 mps 752 mmHg 94%
05:00 +11°C° 0.1 mm 4 mps 753 mmHg 95%
06:00 +11°C° 0.1 mm 3 mps 753 mmHg 95%
07:00 +11°C° 0.1 mm 4 mps 753 mmHg 95%
08:00 +11°C° 0.1 mm 4 mps 753 mmHg 94%
09:00 +12°C° 0.1 mm 4 mps 754 mmHg 93%
10:00 +12°C° 0.1 mm 4 mps 753 mmHg 90%
11:00 +13°C° 0.1 mm 5 mps 753 mmHg 86%
12:00 +14°C° 0.1 mm 6 mps 753 mmHg 83%
13:00 +14°C° 0.2 mm 6 mps 753 mmHg 81%
14:00 +14°C° 0.2 mm 7 mps 753 mmHg 79%
15:00 +15°C° 0.2 mm 8 mps 752 mmHg 77%
16:00 +14°C° 0.1 mm 7 mps 752 mmHg 81%
17:00 +14°C° 0.1 mm 7 mps 752 mmHg 84%
18:00 +12°C° 0.1 mm 7 mps 752 mmHg 87%
19:00 +12°C° 0.5 mm 7 mps 752 mmHg 89%
20:00 +12°C° 0.5 mm 7 mps 752 mmHg 90%
21:00 +14°C° 0.5 mm 7 mps 752 mmHg 92%
22:00 +14°C° 1.3 mm 7 mps 752 mmHg 93%
23:00 +14°C° 1.3 mm 6 mps 752 mmHg 93%

22 Enero, Viernes

Tiempo Temperatura Precipitaciones Viento Presión Humedad
00:00 +14°C° 1.3 mm 6 mps 752 mmHg 94%
01:00 +14°C° 0.4 mm 5 mps 751 mmHg 95%
02:00 +13°C° 0.4 mm 4 mps 751 mmHg 95%
03:00 +13°C° 0.4 mm 4 mps 751 mmHg 96%
04:00 +13°C° 0 mm 4 mps 751 mmHg 96%
05:00 +12°C° 0 mm 4 mps 751 mmHg 96%
06:00 +12°C° 0 mm 4 mps 751 mmHg 96%
07:00 +12°C° 0.1 mm 5 mps 752 mmHg 94%
08:00 +13°C° 0.1 mm 6 mps 752 mmHg 93%
09:00 +13°C° 0.1 mm 6 mps 753 mmHg 91%
10:00 +14°C° 0.2 mm 7 mps 753 mmHg 82%
11:00 +15°C° 0.2 mm 7 mps 753 mmHg 74%
12:00 +15°C° 0.2 mm 8 mps 753 mmHg 65%
13:00 +15°C° 0.2 mm 7 mps 753 mmHg 66%
14:00 +15°C° 0.2 mm 6 mps 753 mmHg 67%
15:00 +14°C° 0.2 mm 6 mps 753 mmHg 67%
16:00 +13°C° 0.1 mm 5 mps 754 mmHg 71%
17:00 +12°C° 0.1 mm 4 mps 755 mmHg 75%
18:00 +11°C° 0.1 mm 3 mps 755 mmHg 79%
19:00 +10°C° 0 mm 2 mps 756 mmHg 82%
20:00 +9°C° 0 mm 2 mps 757 mmHg 85%
21:00 +10°C° 0 mm 1 mps 758 mmHg 88%
22:00 +9°C° 0 mm 1 mps 758 mmHg 89%
23:00 +9°C° 0 mm 1 mps 758 mmHg 90%
Mostrar más

Necesitamos Su Consentimiento

Meteoprog y nuestros Proveedores de Servicios pueden almacenar y acceder a sus datos personales como cookies, identificadores de dispositivo u otras tecnologías similares de su dispositivo y procesar dichos datos para personalizar contenido y anuncios, además de ofrecer funciones de redes sociales y analizar el tráfico.

  • Almacenar y/o acceder a información en su dispositivo

    Se puede almacenar o acceder a cookies, identificadores de dispositivo u otra información de su dispositivo para los fines anteriormente indicados.

  • Anuncios y contenido personalizados, medición de anuncios y contenido, percepciones del público, y desarrollo de productos

    Los anuncios y el contenido pueden personalizarse en base a su perfil. Se pueden añadir más datos para personalizar mejor los anuncios y contenidos. Se puede medir el rendimiento de los anuncios y contenidos. Se puede obtener la percepción sobre el público que ha visto los anuncios y contenidos. Dichos datos pueden usarse para desarrollar o mejorar la experiencia del usuario, sistemas y software.

Al hacer clic en ‘Estoy De Acuerdo’ usted permitirá el uso de las cookies, identificadores de dispositivo, balizas web u otras tecnologías similares indicadas. Su configuración puede cambiarse desde el navegador de su dispositivo.

Para ciertos fines, los intereses legítimos pueden ser considerados por encima del consentimiento. Puede leer más sobre ello en nuestra Política de Privacidad y Cookies.